AirNav   Everest Fuels
 
 601 users online  

7PA2 State Park Heliport
Wind Gap, Pennsylvania, USA

GOING TO WIND GAP?


FAA INFORMATION EFFECTIVE 18 JUNE 2020

Location

FAA Identifier: 7PA2
Lat/Long: 40-48-13.8900N 075-17-49.1700W
40-48.231500N 075-17.819500W
40.8038583,-75.2969917
(estimated)
Elevation: 620 ft. / 189 m (estimated)
Variation: 12W (1995)
From city: 3 miles S of WIND GAP, PA
Time zone: UTC -4 (UTC -5 during Standard Time)
Zip code: 18091

Heliport Operations

Heliport use: Private use. Permission required prior to landing
Activation date: 07/1999
Control tower: no
ARTCC: NEW YORK CENTER
FSS: WILLIAMSPORT FLIGHT SERVICE STATION
Attendance: UNATNDD
Wind indicator: yes
Segmented circle: no

Heliport Communications

UNICOM: 123.05
WX ASOS at ABE (11 nm SW): 126.975 (610-266-3579)
WX AWOS-3 at XLL (16 nm SW): 127.875 (610-231-3111)

Nearby radio navigation aids

VOR radial/distance  VOR name  Freq  Var
FJCr067/8.5ALLENTOWN VORTAC117.5010W
BWZr282/21.6BROADWAY VOR/DME114.2011W
ETXr062/22.1EAST TEXAS VOR/DME110.2009W
STWr250/22.6STILLWATER VOR/DME109.6011W
SBJr308/28.5SOLBERG VOR/DME112.9010W
LVZr158/33.3WILKES-BARRE VORTAC111.6010W
PTWr028/36.9POTTSTOWN VORTAC116.5009W
ARDr342/37.5YARDLEY VOR/DME108.2010W
SAXr256/37.9SPARTA VORTAC115.7011W

 
NDB name  Hdg/Dist  Freq  Var  ID
CHATHAM288/39.625413WCAT -.-. .- -

Heliport Services

Runway Information

Helipad H1

Dimensions: 60 x 60 ft. / 18 x 18 m
Surface: turf, in good condition
Traffic pattern: leftleft

Heliport Ownership and Management from official FAA records

Ownership: Privately-owned
Owner: DONALD JAY SLEIGHT JR
982 STATE PARK RD
WIND GAP, PA 18091
Phone 610-863-7902
Manager: DONALD JAY SLEIGHT JR
982 STATE PARK RD
WIND GAP, PA 18091
Phone 610-863-7902

Heliport Operational Statistics

Aircraft based on the field: 2
Helicopters: 2
    

Additional Remarks

FOR CD CTC ALLENTOWN APCH AT 800-728-6322.

Instrument Procedures

There are no published instrument procedures at 7PA2.

Some nearby airports with instrument procedures:

N43 - Braden Airpark (4 nm SE)
KABE - Lehigh Valley International Airport (11 nm SW)
N53 - Stroudsburg-Pocono Airport (15 nm NE)
KXLL - Allentown Queen City Municipal Airport (16 nm SW)
1N7 - Blairstown Airport (17 nm NE)
N85 - Alexandria Airport (18 nm SE)
 
Loc | Ops | Rwys | IFR | FBO | Links
Com | Nav | Svcs | Stats | Notes
Area around 7PA2 (State Park Heliport)
 
Road maps at: MapQuest Bing Google
 
Aerial photo
No photo
 
Sectional chart

 
Airport distance calculator
Flying to State Park Heliport? Find the distance to fly.

From to 7PA2

Sunrise and sunset
Times for 11-Jul-2020
 Local
(UTC-4)
 Zulu
(UTC)
Morning civil twilight05:0909:09
Sunrise05:4109:41
Sunset20:3200:32
Evening civil twilight21:0501:05

Current date and time
Zulu (UTC)  11-Jul-2020 04:30:53
Local (UTC-4)  11-Jul-2020 00:30:53
 
METAR
KABE 
12nm SW 
110404Z AUTO 8SM -RA SCT008 OVC021 22/21 A2965 RMK AO2 P0000 T02220211
KXLL 
16nm SW 
110415Z AUTO 23009KT 10SM SCT005 SCT011 BKN041 22/22 A2968 RMK AO2
KMPO 
20nm N 
110424Z AUTO 28005KT 4SM -RA BR BKN010 OVC014 20/19 A2968 RMK AO2 P0002 T02000194 $
K22N 
21nm W 
110424Z AUTO 00000KT 5SM RA SCT034 OVC049 22/22 A2967 RMK AO2
KUKT 
22nm S 
110415Z AUTO 22006KT 7SM FEW007 BKN011 OVC026 22/22 A2969 RMK A01
TAF
KABE 
12nm SW 
110212Z 1102/1124 33010KT P6SM SCT012 OVC035 TEMPO 1102/1104 2SM SHRA OVC015 FM110700 VRB03KT P6SM BKN035 FM111000 VRB03KT 4SM BR SCT080 FM111300 21006KT P6SM BKN080
NOTAMs
Click for the latest NOTAMs
NOTAMs are issued by the DoD/FAA and will open in a separate window not controlled by AirNav.

 

 
 

Would you like to see your business listed on this page?

 If your business provides an interesting product or service to pilots, flight crews, aircraft, or users of the State Park Heliport, you should consider listing it here.  To start the listing process, click on the button below
 
Add a business
 

Other Pages about State Park Heliport

Update a link
 
Copyright © AirNav, LLC. All rights reserved. Privacy Policy  Contact